contact:dominique.lefevre@mio.osupytheas.fr, maurice.libes@osupytheas.fr, didier.mallarino@osupytheas.fr
Project:EMSO http://www.emso-fr.org/EMSO-France
Depth: 2436.0 m
Title:EMSO Ligure Ouest : Data MII capteur AQUADOPP
Date,Latitude,Longitude,X_East,Y_North,Z_Up,Amplitude_X,Amplitude_Y,Amplitude_Z,Batterie,SoundSpeed,Heading,Pitch,Roll,Pressure,TIS,Speed,Direction
, degrees North, degrees East, m.s-1, m.s-1,m.s-1, 1, 1, 1, Volt, m.s-1, degree, degree, degree, dbar, degree_C, m.s-1, degree
2019-07-26T00:01:44,42.805,6.029,0.013,0.0,-0.046,103.0,115.0,100.0,13.4,1505.3,323.7,-0.7,1.8,2470.156,13.32,0.013,90.0
2019-07-26T00:04:45,42.805,6.029,0.045,-0.016,-0.071,102.0,114.0,100.0,13.4,1505.3,326.0,-0.7,1.8,2470.185,13.32,0.047,109.6
2019-07-26T00:07:46,42.805,6.029,0.038,0.008,-0.01,104.0,114.0,100.0,13.4,1505.3,325.9,-0.7,1.8,2470.146,13.32,0.038,78.1
2019-07-26T00:10:47,42.805,6.029,0.034,0.009,-0.027,104.0,112.0,99.0,13.4,1505.3,324.2,-0.7,1.8,2470.137,13.32,0.035,75.2
2019-07-26T00:13:48,42.805,6.029,0.014,0.016,-0.04,103.0,116.0,100.0,13.3,1505.3,328.3,-0.7,1.9,2470.166,13.32,0.021,41.2
2019-07-26T00:16:49,42.805,6.029,0.018,0.02,-0.023,105.0,116.0,98.0,13.3,1505.3,323.4,-0.8,1.8,2470.127,13.32,0.026,42.0
2019-07-26T00:19:50,42.805,6.029,0.016,0.01,-0.058,104.0,115.0,101.0,13.4,1505.3,323.0,-0.7,1.8,2470.151,13.32,0.018,58.0
2019-07-26T00:22:51,42.805,6.029,0.029,0.025,-0.012,104.0,116.0,99.0,13.4,1505.3,323.7,-0.7,1.8,2470.16,13.32,0.038,49.2
2019-07-26T00:25:52,42.805,6.029,0.024,0.004,-0.027,103.0,115.0,99.0,13.4,1505.3,324.6,-0.8,1.8,2470.149,13.32,0.024,80.5
2019-07-26T00:28:53,42.805,6.029,0.026,0.01,-0.017,103.0,115.0,99.0,13.4,1505.3,327.0,-0.7,1.8,2470.105,13.32,0.027,69.0
2019-07-26T00:31:54,42.805,6.029,0.025,0.015,-0.012,103.0,116.0,100.0,13.4,1505.3,323.6,-0.7,1.8,2470.13,13.32,0.029,59.0
2019-07-26T00:34:55,42.805,6.029,0.028,0.023,-0.037,102.0,114.0,99.0,13.4,1505.3,323.4,-0.7,1.8,2470.1,13.32,0.036,50.6
2019-07-26T00:37:56,42.805,6.029,0.034,-0.018,-0.031,104.0,110.0,100.0,13.4,1505.3,323.0,-0.7,1.8,2470.135,13.32,0.038,117.9
2019-07-26T00:40:57,42.805,6.029,0.033,0.036,-0.038,103.0,113.0,100.0,13.3,1505.3,323.0,-0.7,1.8,2470.145,13.32,0.048,42.5
2019-07-26T00:43:58,42.805,6.029,0.023,0.036,-0.009,102.0,115.0,99.0,13.3,1505.3,323.3,-0.7,1.8,2470.175,13.32,0.042,32.6
2019-07-26T00:46:59,42.805,6.029,0.008,0.004,-0.022,103.0,116.0,100.0,13.4,1505.3,325.5,-0.7,1.9,2470.132,13.32,0.008,63.4
2019-07-26T00:50:00,42.805,6.029,0.024,-0.001,-0.03,104.0,118.0,99.0,13.3,1505.3,325.6,-0.7,1.8,2470.178,13.32,0.024,92.4
2019-07-26T00:53:01,42.805,6.029,0.033,0.018,-0.035,103.0,115.0,100.0,13.4,1505.3,327.1,-0.7,1.8,2470.12,13.32,0.037,61.4
2019-07-26T00:56:02,42.805,6.029,0.018,0.017,-0.039,103.0,115.0,100.0,13.3,1505.3,326.8,-0.7,1.8,2470.168,13.32,0.024,46.6
2019-07-26T00:59:03,42.805,6.029,0.026,0.01,-0.026,104.0,114.0,99.0,13.4,1505.3,326.0,-0.7,1.8,2470.111,13.32,0.027,69.0
2019-07-26T01:02:04,42.805,6.029,0.037,-0.011,-0.027,102.0,116.0,98.0,13.3,1505.3,326.1,-0.7,1.9,2470.164,13.32,0.038,106.6
2019-07-26T01:05:05,42.805,6.029,0.044,0.0,-0.018,103.0,116.0,99.0,13.4,1505.3,325.8,-0.7,1.9,2470.168,13.32,0.044,90.0
2019-07-26T01:08:06,42.805,6.029,0.028,0.001,-0.017,102.0,116.0,99.0,13.3,1505.3,326.9,-0.7,1.9,2470.163,13.32,0.028,88.0
2019-07-26T01:11:07,42.805,6.029,0.027,0.016,-0.061,103.0,115.0,99.0,13.4,1505.3,326.2,-0.7,1.8,2470.175,13.32,0.031,59.3
2019-07-26T01:14:08,42.805,6.029,0.036,0.02,-0.008,102.0,117.0,98.0,13.3,1505.3,325.2,-0.7,1.8,2470.144,13.32,0.041,60.9
2019-07-26T01:17:09,42.805,6.029,0.034,0.011,-0.026,102.0,114.0,100.0,13.4,1505.3,324.7,-0.7,1.8,2470.154,13.32,0.035,72.1
2019-07-26T01:20:10,42.805,6.029,0.012,-0.011,-0.024,101.0,117.0,99.0,13.3,1505.3,325.2,-0.7,1.8,2470.183,13.32,0.016,132.5
2019-07-26T01:23:11,42.805,6.029,0.02,0.009,-0.014,102.0,118.0,98.0,13.4,1505.3,326.2,-0.7,1.8,2470.169,13.32,0.021,65.8
2019-07-26T01:26:12,42.805,6.029,0.049,0.024,-0.01,103.0,118.0,99.0,13.4,1505.3,326.6,-0.7,1.8,2470.152,13.32,0.054,63.9
2019-07-26T01:29:13,42.805,6.029,0.004,-0.002,-0.054,103.0,116.0,100.0,13.3,1505.3,323.3,-0.7,1.8,2470.164,13.32,0.004,116.6
2019-07-26T01:32:14,42.805,6.029,0.045,0.004,-0.03,102.0,117.0,101.0,13.4,1505.3,323.7,-0.8,1.9,2470.123,13.32,0.045,84.9
2019-07-26T01:35:15,42.805,6.029,0.025,0.014,-0.035,102.0,117.0,99.0,13.4,1505.3,323.4,-0.7,1.9,2470.153,13.32,0.028,60.7
2019-07-26T01:38:16,42.805,6.029,0.027,0.011,-0.028,102.0,117.0,100.0,13.3,1505.3,324.4,-0.7,1.9,2470.152,13.32,0.029,67.8
2019-07-26T01:41:17,42.805,6.029,0.041,0.019,-0.004,103.0,119.0,98.0,13.3,1505.3,323.1,-0.7,1.8,2470.142,13.32,0.045,65.1
2019-07-26T01:44:18,42.805,6.029,0.038,0.024,-0.031,104.0,120.0,98.0,13.4,1505.3,323.0,-0.7,1.8,2470.165,13.32,0.044,57.7
2019-07-26T01:47:19,42.805,6.029,0.011,0.028,-0.036,102.0,120.0,99.0,13.3,1505.3,323.4,-0.7,1.8,2470.143,13.32,0.03,21.4
2019-07-26T01:50:20,42.805,6.029,0.001,0.017,-0.018,102.0,118.0,99.0,13.4,1505.3,323.9,-0.7,1.8,2470.161,13.32,0.017,3.4
2019-07-26T01:53:21,42.805,6.029,0.034,0.009,-0.018,103.0,116.0,99.0,13.3,1505.3,323.3,-0.7,1.9,2470.13,13.32,0.035,75.2
2019-07-26T01:56:22,42.805,6.029,0.036,0.016,0.0,103.0,122.0,99.0,13.4,1505.3,325.3,-0.7,1.8,2470.143,13.32,0.039,66.0
2019-07-26T01:59:23,42.805,6.029,0.017,0.012,-0.03,103.0,119.0,99.0,13.4,1505.3,325.6,-0.8,1.8,2470.162,13.32,0.02,54.8
2019-07-26T02:02:24,42.805,6.029,0.029,0.021,-0.03,103.0,122.0,99.0,13.3,1505.3,326.7,-0.7,1.8,2470.169,13.32,0.035,54.1
2019-07-26T02:05:25,42.805,6.029,0.025,0.026,-0.014,103.0,119.0,99.0,13.3,1505.3,325.0,-0.7,1.8,2470.12,13.32,0.036,43.9
2019-07-26T02:08:26,42.805,6.029,0.017,0.019,-0.07,103.0,119.0,99.0,13.3,1505.3,326.5,-0.7,1.8,2470.142,13.32,0.025,41.8
2019-07-26T02:11:27,42.805,6.029,0.037,0.042,-0.038,103.0,118.0,98.0,13.3,1505.3,327.9,-0.7,1.8,2470.17,13.32,0.055,41.4
2019-07-26T02:14:28,42.805,6.029,0.036,0.048,-0.029,104.0,121.0,99.0,13.4,1505.3,326.3,-0.7,1.8,2470.145,13.32,0.06,36.9
2019-07-26T02:17:29,42.805,6.029,0.058,0.041,-0.014,103.0,122.0,99.0,13.3,1505.3,323.5,-0.7,1.9,2470.156,13.32,0.071,54.7
2019-07-26T02:20:30,42.805,6.029,0.026,0.024,-0.028,102.0,118.0,99.0,13.4,1505.3,322.9,-0.7,1.8,2470.162,13.32,0.035,47.3
2019-07-26T02:23:31,42.805,6.029,0.01,0.037,-0.051,103.0,117.0,98.0,13.4,1505.3,327.4,-0.7,1.8,2470.157,13.32,0.038,15.1
2019-07-26T02:26:32,42.805,6.029,0.036,0.014,-0.023,104.0,125.0,98.0,13.4,1505.3,327.9,-0.7,1.8,2470.189,13.32,0.038,68.8
2019-07-26T02:29:33,42.805,6.029,0.038,0.027,-0.036,103.0,119.0,99.0,13.4,1505.3,322.9,-0.7,1.9,2470.105,13.32,0.046,54.6
2019-07-26T02:32:34,42.805,6.029,-0.003,0.018,-0.05,103.0,117.0,99.0,13.4,1505.3,325.8,-0.7,1.8,2470.176,13.32,0.018,350.5
2019-07-26T02:35:35,42.805,6.029,0.02,0.011,-0.07,102.0,118.0,99.0,13.4,1505.3,326.9,-0.7,1.8,2470.176,13.32,0.022,61.2
2019-07-26T02:38:36,42.805,6.029,0.04,0.022,-0.01,103.0,122.0,100.0,13.4,1505.3,326.6,-0.7,1.9,2470.158,13.32,0.045,61.2
2019-07-26T02:41:37,42.805,6.029,0.022,0.03,-0.052,102.0,121.0,99.0,13.3,1505.3,324.5,-0.7,1.8,2470.186,13.32,0.037,36.3
2019-07-26T02:44:38,42.805,6.029,0.01,0.022,-0.081,100.0,121.0,100.0,13.3,1505.3,327.3,-0.7,1.8,2470.159,13.32,0.024,24.4
2019-07-26T02:47:39,42.805,6.029,0.035,0.026,-0.011,103.0,121.0,100.0,13.4,1505.3,323.8,-0.7,1.8,2470.136,13.32,0.043,53.4
2019-07-26T02:50:40,42.805,6.029,0.015,0.028,-0.034,103.0,124.0,99.0,13.4,1505.3,326.8,-0.7,1.8,2470.147,13.32,0.031,28.2
2019-07-26T02:53:41,42.805,6.029,-0.002,0.029,-0.034,103.0,121.0,100.0,13.4,1505.3,325.6,-0.7,1.8,2470.102,13.32,0.029,356.1
2019-07-26T02:56:42,42.805,6.029,0.036,0.017,-0.032,102.0,121.0,99.0,13.4,1505.3,326.1,-0.7,1.8,2470.159,13.32,0.039,64.7
2019-07-26T02:59:43,42.805,6.029,0.042,0.01,-0.01,103.0,122.0,99.0,13.4,1505.3,324.7,-0.7,1.8,2470.206,13.32,0.043,76.6
2019-07-26T03:02:44,42.805,6.029,0.011,0.017,-0.005,101.0,120.0,99.0,13.4,1505.3,324.6,-0.7,1.9,2470.137,13.32,0.02,32.9
2019-07-26T03:05:45,42.805,6.029,0.032,0.007,-0.019,102.0,118.0,99.0,13.4,1505.3,324.5,-0.7,1.8,2470.154,13.32,0.032,77.7
2019-07-26T03:08:46,42.805,6.029,0.029,0.02,-0.054,101.0,121.0,99.0,13.4,1505.3,328.0,-0.7,1.8,2470.152,13.32,0.035,55.4
2019-07-26T03:11:47,42.805,6.029,0.018,0.001,0.003,102.0,122.0,99.0,13.4,1505.3,323.0,-0.7,1.8,2470.179,13.32,0.018,86.8
2019-07-26T03:14:48,42.805,6.029,0.014,0.043,-0.039,103.0,119.0,98.0,13.4,1505.3,323.2,-0.7,1.8,2470.115,13.32,0.045,18.0
2019-07-26T03:17:49,42.805,6.029,0.032,0.012,0.0,101.0,117.0,99.0,13.4,1505.3,325.8,-0.7,1.9,2470.152,13.32,0.034,69.4
2019-07-26T03:20:50,42.805,6.029,0.041,0.02,-0.026,102.0,122.0,98.0,13.3,1505.3,325.0,-0.7,1.8,2470.152,13.32,0.045,64.0
2019-07-26T03:23:51,42.805,6.029,0.031,0.023,-0.015,102.0,122.0,98.0,13.4,1505.3,322.8,-0.7,1.8,2470.119,13.32,0.038,53.4
2019-07-26T03:26:52,42.805,6.029,0.025,0.01,-0.068,101.0,122.0,99.0,13.4,1505.3,325.9,-0.7,1.8,2470.131,13.32,0.026,68.2
2019-07-26T03:29:53,42.805,6.029,0.012,0.019,-0.042,102.0,126.0,97.0,13.3,1505.3,325.9,-0.7,1.9,2470.17,13.32,0.022,32.3
2019-07-26T03:32:54,42.805,6.029,0.022,0.017,-0.037,102.0,122.0,98.0,13.4,1505.3,326.5,-0.8,1.8,2470.174,13.32,0.027,52.3
2019-07-26T03:35:55,42.805,6.029,0.014,0.006,-0.025,101.0,121.0,98.0,13.4,1505.3,324.0,-0.7,1.8,2470.114,13.32,0.015,66.8
2019-07-26T03:38:56,42.805,6.029,0.006,0.015,-0.027,103.0,123.0,98.0,13.3,1505.3,323.8,-0.7,1.8,2470.075,13.32,0.016,21.8
2019-07-26T03:41:57,42.805,6.029,0.018,0.036,-0.041,102.0,123.0,98.0,13.3,1505.3,325.1,-0.7,1.8,2470.13,13.32,0.04,26.6
2019-07-26T03:44:58,42.805,6.029,0.02,0.043,-0.046,103.0,122.0,98.0,13.4,1505.3,325.9,-0.7,1.8,2470.125,13.32,0.047,24.9
2019-07-26T03:47:59,42.805,6.029,0.006,0.013,-0.026,103.0,127.0,98.0,13.3,1505.3,326.3,-0.7,1.8,2470.108,13.32,0.014,24.8
2019-07-26T03:51:00,42.805,6.029,0.011,0.056,-0.002,102.0,120.0,98.0,13.4,1505.3,325.5,-0.7,1.8,2470.113,13.32,0.057,11.1
2019-07-26T03:54:01,42.805,6.029,0.029,0.021,-0.001,102.0,119.0,99.0,13.3,1505.3,326.2,-0.7,1.8,2470.152,13.32,0.035,54.1
2019-07-26T03:57:02,42.805,6.029,0.016,0.009,-0.029,102.0,121.0,98.0,13.4,1505.3,324.8,-0.7,1.9,2470.109,13.32,0.018,60.6
2019-07-26T04:00:03,42.805,6.029,0.023,0.035,-0.026,102.0,123.0,98.0,13.3,1505.3,323.4,-0.7,1.8,2470.13,13.32,0.041,33.3
2019-07-26T04:03:04,42.805,6.029,0.019,0.019,-0.031,102.0,125.0,98.0,13.3,1505.3,325.0,-0.7,1.8,2470.134,13.32,0.026,45.0
2019-07-26T04:06:05,42.805,6.029,0.03,-0.007,0.002,102.0,124.0,99.0,13.4,1505.3,325.4,-0.8,1.8,2470.131,13.32,0.03,103.1
2019-07-26T04:09:06,42.805,6.029,0.04,0.029,-0.017,102.0,119.0,99.0,13.3,1505.3,326.5,-0.7,1.8,2470.129,13.32,0.049,54.1
2019-07-26T04:12:07,42.805,6.029,0.019,0.023,-0.057,103.0,125.0,98.0,13.4,1505.3,325.8,-0.8,1.8,2470.143,13.32,0.029,39.6
2019-07-26T04:15:08,42.805,6.029,0.051,0.003,0.002,102.0,123.0,99.0,13.3,1505.3,326.9,-0.7,1.8,2470.149,13.32,0.051,86.6
2019-07-26T04:18:09,42.805,6.029,0.051,0.017,-0.004,101.0,117.0,99.0,13.4,1505.3,324.4,-0.7,1.8,2470.151,13.32,0.053,71.6
2019-07-26T04:21:10,42.805,6.029,0.018,0.017,0.004,102.0,118.0,98.0,13.4,1505.3,327.5,-0.8,1.8,2470.133,13.32,0.024,46.6
2019-07-26T04:24:11,42.805,6.029,0.034,0.013,-0.015,103.0,124.0,97.0,13.4,1505.3,326.0,-0.7,1.9,2470.11,13.32,0.036,69.1
2019-07-26T04:27:12,42.805,6.029,0.023,0.021,-0.017,102.0,122.0,99.0,13.4,1505.3,324.6,-0.7,1.8,2470.119,13.32,0.031,47.6
2019-07-26T04:30:13,42.805,6.029,0.027,0.028,-0.045,103.0,119.0,99.0,13.4,1505.3,326.3,-0.7,1.8,2470.148,13.32,0.038,44.0
2019-07-26T04:33:14,42.805,6.029,0.023,0.003,-0.061,102.0,123.0,100.0,13.3,1505.3,327.6,-0.7,1.8,2470.097,13.32,0.023,82.6
2019-07-26T04:36:15,42.805,6.029,0.024,0.009,-0.016,103.0,122.0,99.0,13.3,1505.3,328.0,-0.7,1.8,2470.095,13.32,0.025,69.4
2019-07-26T04:39:16,42.805,6.029,0.045,-0.004,-0.002,102.0,123.0,98.0,13.3,1505.3,327.8,-0.7,1.9,2470.124,13.32,0.045,95.1
2019-07-26T04:42:17,42.805,6.029,0.039,0.016,-0.034,102.0,124.0,100.0,13.4,1505.3,326.0,-0.7,1.8,2470.087,13.32,0.042,67.7
2019-07-26T04:45:18,42.805,6.029,0.012,0.011,-0.036,102.0,121.0,100.0,13.4,1505.3,327.7,-0.7,1.8,2470.101,13.32,0.016,47.5
2019-07-26T04:48:19,42.805,6.029,0.014,0.022,-0.043,102.0,125.0,98.0,13.4,1505.3,326.9,-0.7,1.8,2470.136,13.32,0.026,32.5
2019-07-26T04:51:20,42.805,6.029,0.019,0.028,-0.007,102.0,126.0,99.0,13.4,1505.3,327.7,-0.7,1.8,2470.1,13.32,0.033,34.2
2019-07-26T04:54:21,42.805,6.029,0.024,0.002,-0.046,102.0,122.0,99.0,13.4,1505.3,327.6,-0.7,1.8,2470.11,13.32,0.024,85.2
2019-07-26T04:57:22,42.805,6.029,0.024,0.02,-0.014,103.0,119.0,99.0,13.4,1505.3,325.0,-0.7,1.8,2470.127,13.32,0.031,50.2
2019-07-26T05:00:23,42.805,6.029,0.012,0.007,-0.019,101.0,120.0,99.0,13.4,1505.3,323.4,-0.7,1.8,2470.134,13.32,0.013,59.7
2019-07-26T05:03:24,42.805,6.029,0.023,0.017,-0.057,101.0,125.0,99.0,13.4,1505.3,324.7,-0.7,1.8,2470.111,13.32,0.028,53.5
2019-07-26T05:06:25,42.805,6.029,0.02,0.011,-0.047,102.0,124.0,98.0,13.4,1505.3,323.2,-0.7,1.8,2470.074,13.32,0.022,61.2
2019-07-26T05:09:26,42.805,6.029,0.036,0.03,-0.04,101.0,121.0,98.0,13.3,1505.3,325.9,-0.7,1.8,2470.133,13.32,0.046,50.2
2019-07-26T05:12:27,42.805,6.029,0.039,0.006,0.008,101.0,119.0,98.0,13.3,1505.3,327.0,-0.7,1.9,2470.157,13.32,0.039,81.3
2019-07-26T05:15:28,42.805,6.029,0.024,0.007,0.01,102.0,123.0,99.0,13.4,1505.3,325.8,-0.7,1.8,2470.072,13.32,0.025,73.7
2019-07-26T05:18:29,42.805,6.029,0.024,0.017,-0.03,102.0,125.0,99.0,13.4,1505.3,324.7,-0.7,1.8,2470.117,13.32,0.029,54.7
2019-07-26T05:21:30,42.805,6.029,0.027,0.022,-0.041,103.0,125.0,98.0,13.4,1505.3,326.8,-0.7,1.9,2470.14,13.32,0.034,50.8
2019-07-26T05:24:31,42.805,6.029,0.026,-0.001,-0.047,101.0,124.0,99.0,13.3,1505.3,327.4,-0.7,1.8,2470.11,13.32,0.026,92.2
2019-07-26T05:27:32,42.805,6.029,0.023,0.029,0.015,101.0,124.0,99.0,13.4,1505.3,322.8,-0.7,1.9,2470.083,13.32,0.037,38.4
2019-07-26T05:30:33,42.805,6.029,0.048,0.02,-0.023,102.0,125.0,98.0,13.4,1505.3,323.3,-0.7,1.8,2470.108,13.32,0.052,67.4
2019-07-26T05:33:34,42.805,6.029,0.017,0.019,-0.085,102.0,125.0,98.0,13.3,1505.3,324.4,-0.7,1.8,2470.094,13.32,0.025,41.8
2019-07-26T05:36:35,42.805,6.029,0.028,0.029,-0.002,101.0,126.0,99.0,13.3,1505.3,324.3,-0.7,1.8,2470.067,13.32,0.04,44.0
2019-07-26T05:39:36,42.805,6.029,0.013,0.028,-0.046,101.0,121.0,98.0,13.3,1505.3,323.5,-0.8,1.9,2470.057,13.32,0.03,24.9
2019-07-26T05:42:37,42.805,6.029,0.011,-0.003,-0.042,101.0,126.0,98.0,13.4,1505.3,325.6,-0.7,1.8,2470.144,13.32,0.011,105.3
2019-07-26T05:45:38,42.805,6.029,0.035,0.018,0.0,102.0,125.0,98.0,13.3,1505.3,323.9,-0.7,1.8,2470.079,13.32,0.039,62.8
2019-07-26T05:48:39,42.805,6.029,0.043,0.017,0.007,102.0,118.0,101.0,13.4,1505.3,323.1,-0.7,1.8,2470.094,13.32,0.046,68.4
2019-07-26T05:51:40,42.805,6.029,0.038,0.003,-0.026,102.0,122.0,99.0,13.4,1505.3,325.7,-0.7,1.8,2470.087,13.32,0.038,85.5
2019-07-26T05:54:41,42.805,6.029,0.034,0.029,-0.023,101.0,126.0,100.0,13.3,1505.3,327.0,-0.7,1.8,2470.063,13.32,0.044,49.5
2019-07-26T05:57:42,42.805,6.029,0.059,0.01,-0.012,99.0,125.0,99.0,13.3,1505.3,326.9,-0.7,1.8,2470.09,13.32,0.059,80.4
2019-07-26T06:00:43,42.805,6.029,0.013,0.031,-0.027,102.0,122.0,98.0,13.3,1505.3,326.1,-0.7,1.8,2470.068,13.32,0.033,22.7
2019-07-26T06:03:44,42.805,6.029,0.032,0.016,-0.012,103.0,125.0,98.0,13.4,1505.3,326.4,-0.7,1.8,2470.065,13.32,0.035,63.4
2019-07-26T06:06:45,42.805,6.029,0.028,0.017,-0.033,102.0,125.0,99.0,13.3,1505.3,325.3,-0.7,1.8,2470.046,13.32,0.032,58.7
2019-07-26T06:09:46,42.805,6.029,0.04,0.006,-0.03,101.0,125.0,98.0,13.4,1505.3,325.0,-0.7,1.9,2470.091,13.32,0.04,81.5
2019-07-26T06:12:47,42.805,6.029,0.041,0.006,-0.02,102.0,124.0,100.0,13.3,1505.3,328.1,-0.7,1.8,2470.088,13.32,0.041,81.7
2019-07-26T06:15:48,42.805,6.029,0.034,-0.025,-0.046,102.0,124.0,98.0,13.3,1505.3,328.7,-0.7,1.9,2470.047,13.32,0.042,126.3
2019-07-26T06:18:49,42.805,6.029,0.037,0.006,-0.045,102.0,119.0,98.0,13.4,1505.3,323.7,-0.7,1.9,2470.084,13.32,0.037,80.8
2019-07-26T06:21:50,42.805,6.029,0.049,0.005,-0.001,101.0,120.0,99.0,13.4,1505.3,326.2,-0.7,1.9,2470.049,13.32,0.049,84.2
2019-07-26T06:24:51,42.805,6.029,0.026,-0.001,0.014,100.0,120.0,99.0,13.3,1505.3,326.7,-0.7,1.8,2470.095,13.32,0.026,92.2
2019-07-26T06:27:52,42.805,6.029,0.025,0.005,-0.037,102.0,124.0,98.0,13.4,1505.3,324.8,-0.7,1.8,2470.048,13.32,0.025,78.7
2019-07-26T06:30:53,42.805,6.029,0.029,0.0,-0.024,102.0,119.0,98.0,13.4,1505.3,324.0,-0.7,1.8,2470.046,13.32,0.028,90.0
2019-07-26T06:33:54,42.805,6.029,0.004,0.037,-0.047,103.0,123.0,98.0,13.4,1505.3,325.7,-0.7,1.8,2470.062,13.32,0.037,6.2
2019-07-26T06:36:55,42.805,6.029,0.061,0.023,-0.022,102.0,120.0,100.0,13.3,1505.3,326.4,-0.7,1.8,2470.048,13.32,0.065,69.3
2019-07-26T06:39:56,42.805,6.029,0.021,0.007,-0.011,103.0,119.0,98.0,13.4,1505.3,326.4,-0.7,1.8,2470.026,13.32,0.022,71.6
2019-07-26T06:42:57,42.805,6.029,0.031,0.017,-0.031,101.0,121.0,99.0,13.4,1505.3,323.7,-0.7,1.8,2470.052,13.32,0.035,61.3
2019-07-26T06:45:58,42.805,6.029,0.036,-0.002,-0.049,101.0,117.0,97.0,13.4,1505.3,326.3,-0.7,1.8,2470.094,13.32,0.036,93.2
2019-07-26T06:48:59,42.805,6.029,0.053,0.012,0.014,101.0,116.0,99.0,13.4,1505.3,326.6,-0.7,1.9,2470.076,13.32,0.054,77.2
2019-07-26T06:52:00,42.805,6.029,0.029,0.011,-0.025,101.0,122.0,99.0,13.4,1505.3,326.6,-0.7,1.8,2470.054,13.32,0.031,69.2
2019-07-26T06:55:01,42.805,6.029,0.051,0.011,-0.017,100.0,122.0,98.0,13.4,1505.3,324.4,-0.7,1.8,2470.083,13.32,0.052,77.8
2019-07-26T06:58:02,42.805,6.029,0.052,0.012,-0.009,102.0,122.0,98.0,13.3,1505.3,328.3,-0.7,1.8,2470.064,13.32,0.053,77.0
2019-07-26T07:01:03,42.805,6.029,0.009,0.025,-0.017,101.0,125.0,97.0,13.4,1505.3,327.3,-0.7,1.8,2470.093,13.32,0.026,19.8
2019-07-26T07:04:04,42.805,6.029,0.008,-0.017,-0.032,102.0,119.0,98.0,13.4,1505.3,327.8,-0.8,1.8,2470.059,13.32,0.018,154.8
2019-07-26T07:07:05,42.805,6.029,0.038,0.021,-0.001,101.0,119.0,98.0,13.4,1505.3,324.4,-0.7,1.9,2470.027,13.32,0.043,61.1
2019-07-26T07:10:06,42.805,6.029,0.034,0.038,-0.066,102.0,123.0,99.0,13.4,1505.3,323.8,-0.7,1.8,2470.055,13.32,0.05,41.8
2019-07-26T07:13:07,42.805,6.029,0.019,-0.001,-0.005,103.0,122.0,98.0,13.4,1505.3,323.7,-0.7,1.8,2470.064,13.32,0.019,93.0
2019-07-26T07:16:08,42.805,6.029,0.033,-0.007,-0.032,101.0,122.0,99.0,13.4,1505.3,324.8,-0.7,1.8,2470.076,13.32,0.033,102.0
2019-07-26T07:19:09,42.805,6.029,0.041,0.023,-0.037,101.0,116.0,99.0,13.4,1505.3,323.0,-0.7,1.8,2470.056,13.32,0.047,60.7
2019-07-26T07:22:10,42.805,6.029,0.04,0.016,-0.03,103.0,119.0,98.0,13.4,1505.3,323.0,-0.8,1.8,2470.062,13.32,0.043,68.2
2019-07-26T07:25:11,42.805,6.029,0.028,-0.02,-0.02,102.0,116.0,99.0,13.3,1505.3,325.5,-0.7,1.8,2470.075,13.32,0.034,125.5
2019-07-26T07:28:12,42.805,6.029,0.014,0.021,-0.02,102.0,126.0,98.0,13.4,1505.3,326.3,-0.7,1.8,2470.042,13.32,0.025,33.7
2019-07-26T07:31:13,42.805,6.029,0.04,0.012,-0.025,101.0,120.0,98.0,13.4,1505.3,325.6,-0.7,1.8,2470.073,13.32,0.041,73.3
2019-07-26T07:34:14,42.805,6.029,0.04,0.009,-0.041,103.0,123.0,99.0,13.3,1505.3,327.2,-0.7,1.8,2470.045,13.32,0.041,77.3
2019-07-26T07:37:15,42.805,6.029,0.04,-0.013,-0.059,101.0,119.0,98.0,13.4,1505.3,325.4,-0.7,1.8,2470.055,13.32,0.042,108.0
2019-07-26T07:40:16,42.805,6.029,0.044,0.0,-0.027,101.0,118.0,99.0,13.3,1505.3,328.0,-0.7,1.9,2470.05,13.32,0.044,90.0
2019-07-26T07:43:17,42.805,6.029,0.041,0.007,-0.043,103.0,123.0,99.0,13.4,1505.3,328.6,-0.7,1.8,2470.043,13.32,0.041,80.3
2019-07-26T07:46:18,42.805,6.029,0.04,0.008,0.008,101.0,116.0,98.0,13.4,1505.3,325.1,-0.7,1.9,2470.033,13.32,0.04,78.7
2019-07-26T07:49:19,42.805,6.029,0.029,0.019,0.016,100.0,116.0,99.0,13.4,1505.3,325.0,-0.7,1.9,2470.062,13.32,0.034,56.8
2019-07-26T07:52:20,42.805,6.029,0.053,0.013,-0.019,102.0,118.0,99.0,13.3,1505.3,323.5,-0.7,1.8,2470.06,13.32,0.054,76.2
2019-07-26T07:55:21,42.805,6.029,0.045,0.005,-0.018,103.0,116.0,99.0,13.3,1505.3,326.3,-0.7,1.8,2470.025,13.32,0.045,83.7
2019-07-26T07:58:22,42.805,6.029,0.044,0.012,-0.029,102.0,119.0,99.0,13.3,1505.3,327.0,-0.7,1.8,2470.022,13.32,0.045,74.7
2019-07-26T08:01:23,42.805,6.029,0.035,0.014,-0.022,102.0,115.0,98.0,13.3,1505.3,326.6,-0.7,1.8,2470.05,13.32,0.037,68.2
2019-07-26T08:04:24,42.805,6.029,0.025,0.016,-0.007,103.0,115.0,99.0,13.4,1505.3,325.6,-0.7,1.9,2470.011,13.32,0.029,57.4
2019-07-26T08:07:25,42.805,6.029,0.037,0.01,-0.031,101.0,121.0,97.0,13.4,1505.3,324.3,-0.8,1.8,2470.088,13.32,0.038,74.9
2019-07-26T08:10:26,42.805,6.029,0.038,0.004,-0.016,101.0,118.0,99.0,13.3,1505.3,325.3,-0.7,1.9,2470.031,13.32,0.038,84.0
2019-07-26T08:13:27,42.805,6.029,0.037,-0.004,-0.009,102.0,115.0,98.0,13.3,1505.3,327.5,-0.8,1.8,2470.059,13.32,0.037,96.2
2019-07-26T08:16:28,42.805,6.029,0.045,0.004,-0.02,102.0,118.0,98.0,13.3,1505.3,322.9,-0.7,1.8,2470.023,13.32,0.045,84.9
2019-07-26T08:19:29,42.805,6.029,0.039,0.023,-0.025,103.0,118.0,97.0,13.4,1505.3,323.3,-0.7,1.8,2470.004,13.32,0.045,59.5
2019-07-26T08:22:30,42.805,6.029,0.055,0.014,-0.008,102.0,117.0,98.0,13.4,1505.3,325.9,-0.7,1.8,2470.051,13.32,0.056,75.7
2019-07-26T08:25:31,42.805,6.029,0.054,0.024,-0.018,100.0,115.0,97.0,13.4,1505.3,326.5,-0.7,1.8,2470.049,13.32,0.059,66.0
2019-07-26T08:28:32,42.805,6.029,0.061,0.003,-0.037,102.0,117.0,99.0,13.4,1505.3,327.1,-0.7,1.8,2470.023,13.32,0.061,87.2
2019-07-26T08:31:33,42.805,6.029,0.038,0.002,-0.05,100.0,119.0,98.0,13.3,1505.3,325.2,-0.7,1.8,2470.024,13.32,0.038,87.0
2019-07-26T08:34:34,42.805,6.029,0.043,0.011,0.002,103.0,117.0,97.0,13.3,1505.3,324.7,-0.7,1.8,2470.041,13.32,0.044,75.7
2019-07-26T08:37:35,42.805,6.029,0.031,0.015,-0.05,100.0,119.0,98.0,13.4,1505.3,324.0,-0.7,1.8,2470.041,13.32,0.034,64.2
2019-07-26T08:40:36,42.805,6.029,0.028,0.006,-0.008,102.0,116.0,99.0,13.3,1505.3,326.8,-0.7,1.8,2470.024,13.32,0.028,77.9
2019-07-26T08:43:37,42.805,6.029,0.036,0.008,-0.021,101.0,120.0,99.0,13.4,1505.3,328.0,-0.7,1.8,2470.045,13.32,0.036,77.5
2019-07-26T08:46:38,42.805,6.029,0.03,0.003,-0.048,101.0,117.0,98.0,13.4,1505.3,324.2,-0.7,1.8,2470.055,13.32,0.03,84.3
2019-07-26T08:49:39,42.805,6.029,0.018,-0.01,-0.036,103.0,115.0,97.0,13.4,1505.3,323.2,-0.7,1.8,2470.032,13.32,0.02,119.1
2019-07-26T08:52:40,42.805,6.029,0.044,0.015,-0.021,101.0,120.0,98.0,13.4,1505.3,327.5,-0.7,1.9,2470.042,13.32,0.046,71.2
2019-07-26T08:55:41,42.805,6.029,0.052,0.013,-0.01,101.0,117.0,97.0,13.4,1505.3,327.8,-0.7,1.8,2470.05,13.32,0.053,76.0
2019-07-26T08:58:42,42.805,6.029,0.021,0.005,-0.026,102.0,122.0,97.0,13.4,1505.3,328.6,-0.7,1.8,2470.039,13.32,0.021,76.6
2019-07-26T09:01:43,42.805,6.029,0.027,-0.001,-0.01,101.0,115.0,99.0,13.4,1505.3,323.9,-0.7,1.8,2470.027,13.32,0.027,92.1
2019-07-26T09:04:44,42.805,6.029,0.011,-0.008,-0.065,102.0,118.0,99.0,13.4,1505.3,326.8,-0.7,1.9,2470.035,13.32,0.013,126.0
2019-07-26T09:07:45,42.805,6.029,0.038,0.031,-0.033,101.0,119.0,98.0,13.4,1505.3,325.1,-0.7,1.8,2470.037,13.32,0.049,50.8
2019-07-26T09:10:46,42.805,6.029,0.063,0.006,-0.039,102.0,117.0,98.0,13.4,1505.3,326.7,-0.7,1.8,2470.04,13.32,0.063,84.6
2019-07-26T09:13:47,42.805,6.029,0.06,0.006,-0.01,102.0,116.0,99.0,13.4,1505.3,327.7,-0.7,1.8,2470.03,13.32,0.06,84.3
2019-07-26T09:16:48,42.805,6.029,0.045,0.016,-0.018,100.0,119.0,97.0,13.4,1505.3,326.0,-0.7,1.8,2470.01,13.32,0.047,70.4
2019-07-26T09:19:49,42.805,6.029,0.019,0.001,-0.062,101.0,116.0,98.0,13.4,1505.3,327.8,-0.7,1.8,2470.023,13.32,0.019,87.0
2019-07-26T09:22:50,42.805,6.029,0.039,0.01,-0.024,102.0,114.0,98.0,13.4,1505.3,327.8,-0.7,1.8,2470.081,13.32,0.04,75.6
2019-07-26T09:25:51,42.805,6.029,0.066,0.018,-0.012,102.0,124.0,99.0,13.4,1505.3,327.0,-0.7,1.8,2470.035,13.32,0.068,74.7
2019-07-26T09:28:52,42.805,6.029,0.072,0.01,-0.036,101.0,119.0,99.0,13.3,1505.3,324.3,-0.8,1.9,2470.04,13.32,0.072,82.1
2019-07-26T09:31:53,42.805,6.029,0.043,0.012,-0.019,101.0,115.0,99.0,13.4,1505.3,323.1,-0.7,1.9,2470.015,13.32,0.044,74.4
2019-07-26T09:34:54,42.805,6.029,0.02,0.005,-0.055,102.0,118.0,99.0,13.4,1505.3,323.5,-0.7,1.8,2470.038,13.32,0.02,76.0
2019-07-26T09:37:55,42.805,6.029,0.022,0.024,-0.01,101.0,119.0,98.0,13.3,1505.3,325.9,-0.7,1.8,2470.042,13.32,0.032,42.5
2019-07-26T09:40:56,42.805,6.029,0.033,0.014,-0.024,103.0,116.0,98.0,13.4,1505.3,323.8,-0.7,1.8,2470.011,13.32,0.035,67.0